Theta_e
348 349 351 351 352 352 350 347 346 345 344 344 341 338 336 335 335 336 334 334 332 331 331 333 330 326 329 329 331 330 329 329 330 331 328 329 330 330 330 330 327 329 331
349 350 352 350 349 347 345 345 343 342 340 339 337 335 336 334 332 335 333 335 334 334 333 332 324 324 331 330 330 330 330 329 330 331 330 330 330 330 332 332 331 331 329
349 348 348 346 344 343 343 341 340 338 338 336 334 333 332 333 333 335 335 334 334 332 333 327 324 325 327 331 330 330 330 327 330 331 330 329 329 329 330 330 329 327 328
345 346 344 344 344 343 341 340 339 336 334 332 332 332 332 332 333 333 334 334 334 332 328 328 327 328 331 331 330 330 329 329 331 328 326 326 326 326 326 324 323 325 326
344 344 344 343 342 341 339 337 334 334 331 333 332 332 332 331 332 334 335 334 333 331 329 328 328 330 331 332 331 331 328 330 328 326 325 324 323 324 323 321 320 321 322
342 342 342 340 339 337 335 332 332 333 331 331 331 332 331 329 329 331 332 330 330 329 328 328 329 328 330 330 330 330 329 330 327 325 324 324 323 322 321 321 320 321 319
338 337 335 334 333 332 332 332 332 330 330 330 331 333 334 328 329 332 332 331 327 328 326 328 330 330 330 328 329 329 330 331 328 325 324 323 322 322 321 321 321 321 320
334 333 333 334 333 333 332 334 329 329 331 332 333 334 331 328 327 330 331 329 326 326 328 327 330 330 330 330 331 330 329 329 327 325 324 322 323 322 322 322 320 319 319
332 334 334 334 333 332 333 331 331 333 332 334 334 334 330 328 328 330 331 329 326 325 325 328 330 327 327 329 330 330 329 328 329 326 325 323 323 322 322 321 320 320 319
333 334 333 333 332 332 332 331 332 332 333 332 333 333 329 327 328 330 330 329 326 326 326 326 329 327 327 330 329 328 327 326 327 324 323 323 322 323 322 322 320 320 320
333 332 332 332 332 331 330 330 332 332 332 333 333 331 329 327 327 327 327 327 325 325 325 325 326 325 328 329 328 327 326 326 326 324 322 322 323 321 322 321 321 320 319
332 331 333 330 329 332 329 330 331 332 332 334 331 330 329 327 326 326 327 326 325 325 324 324 324 326 327 327 327 326 325 324 323 321 320 320 321 321 321 321 321 320 320
333 332 331 331 331 333 330 330 332 331 333 335 333 330 328 326 326 325 325 326 327 326 324 324 324 325 325 325 324 324 324 322 321 320 319 320 320 321 321 320 320 320 321
333 332 330 331 333 330 332 333 333 333 335 333 333 330 328 326 325 324 324 324 324 323 323 322 324 324 324 322 322 322 322 321 320 320 320 320 321 320 320 320 320 319 320
332 332 332 332 332 333 331 333 331 332 333 334 333 330 327 327 326 326 324 322 321 321 321 322 321 321 320 322 323 322 322 321 320 320 320 320 320 320 320 320 321 322 323
333 332 332 333 333 333 330 327 328 329 331 332 332 331 329 328 326 326 324 323 322 321 321 321 321 322 323 324 324 323 322 322 321 321 320 322 322 321 322 323 325 325 323
332 331 332 333 334 334 333 331 327 327 330 331 331 330 329 326 325 324 323 322 322 323 322 321 321 322 322 324 324 323 323 323 323 323 324 324 325 324 325 325 325 324 320
331 332 330 333 333 333 332 331 330 329 330 326 328 328 327 325 325 323 322 323 323 325 324 323 323 323 323 324 326 325 325 325 325 325 325 325 325 325 325 325 323 322 321
330 328 331 333 332 332 332 332 332 331 329 324 324 326 325 325 324 323 323 325 326 325 325 325 324 323 324 326 327 327 326 326 326 326 326 326 326 327 327 326 324 323 323
329 329 331 331 331 331 333 331 333 332 330 329 327 323 324 323 322 322 323 327 328 327 326 326 325 326 326 327 327 326 326 327 328 328 328 328 328 327 327 326 323 325 324
329 330 330 331 332 331 331 331 334 333 331 332 329 325 326 325 324 324 326 328 329 328 328 327 327 327 327 327 327 327 328 328 328 327 326 325 326 327 328 325 326 326 325
329 330 330 330 331 332 332 331 333 333 332 331 330 327 327 327 326 326 327 327 328 329 329 328 327 327 328 327 327 328 328 327 327 328 328 327 328 328 329 327 327 326 326
331 327 330 330 330 331 331 331 333 332 330 329 329 327 328 329 329 329 330 330 330 330 327 328 327 326 326 327 326 326 327 327 328 328 328 329 328 328 328 329 328 328 328
329 329 329 329 330 330 332 332 331 332 331 329 331 330 330 330 328 325 323 323 317 318 318 318 318 319 321 321 320 321 324 326 326 328 329 330 330 329 327 327 327 327 327
326 323 330 328 328 332 330 326 325 326 324 324 325 326 323 322 320 320 319 315 312 311 309 309 309 313 318 320 316 320 322 324 326 327 327 327 328 329 329 330 330 330 330
312 311 311 315 319 317 315 314 314 314 312 311 311 311 311 310 309 308 309 308 307 304 302 302 303 304 306 307 309 314 317 318 320 322 322 322 322 322 322 321 322 322 322
Wind_Speed
21 22 23 20 21 25 26 26 25 24 23 20 18 14 12 12 11 12 7 8 11 12 13 11 10 8 10 10 6 11 11 9 4 8 17 18 19 17 18 18 20 20 20
20 23 24 26 24 24 28 27 23 22 20 18 17 15 15 10 10 9 9 9 12 15 16 14 13 9 9 10 11 10 8 10 15 14 19 16 16 14 17 21 18 22 23
26 27 26 26 26 25 24 23 20 19 17 16 12 11 13 12 10 8 8 8 10 14 17 14 14 10 12 11 12 12 8 12 15 23 11 15 17 18 19 20 20 22 23
25 25 24 23 23 22 23 20 19 16 13 13 14 13 12 7 7 4 5 3 5 13 13 11 10 9 13 12 14 13 11 14 19 19 17 14 17 18 21 25 22 23 26
25 24 23 23 21 21 20 17 16 16 15 15 13 15 10 7 5 4 5 3 10 12 10 10 7 9 10 13 13 14 13 20 20 19 13 14 15 16 16 19 26 28 24
25 23 22 20 19 18 17 15 15 14 15 15 16 12 13 8 6 6 6 7 8 8 10 9 5 2 6 6 11 11 15 27 21 19 12 17 15 20 27 25 28 24 7
22 21 19 18 17 16 17 17 18 18 14 15 14 12 7 9 8 10 9 9 10 10 9 8 7 8 8 8 10 15 15 16 13 24 20 19 20 27 28 26 24 20 17
21 21 20 18 18 19 19 16 21 17 16 12 13 13 10 10 10 9 9 9 11 10 8 6 7 8 9 10 15 16 15 15 16 19 23 21 25 30 28 28 25 25 26
20 23 23 22 19 20 14 22 17 15 12 11 11 13 10 10 10 9 10 10 10 8 6 7 7 8 9 11 17 19 19 19 14 12 17 20 26 29 30 32 27 28 18
21 28 25 23 20 17 20 21 16 13 11 13 13 15 10 12 9 8 10 9 10 9 8 9 9 10 11 10 20 19 20 20 24 21 20 21 27 26 29 27 31 27 22
21 17 16 25 20 17 22 18 13 13 13 16 19 15 13 9 8 6 6 9 11 9 11 10 11 14 14 12 20 21 21 23 25 25 26 27 26 27 22 24 23 27 26
18 17 21 25 21 25 22 16 13 9 17 18 18 15 12 9 9 8 7 7 10 12 12 13 16 16 18 20 20 22 25 24 25 25 23 24 24 25 22 25 23 23 22
18 19 18 11 22 23 20 15 12 12 14 14 16 16 12 9 10 9 8 6 7 12 14 18 19 16 18 18 21 23 23 22 23 21 19 19 22 24 21 20 19 20 19
18 20 22 19 19 16 15 13 11 13 15 15 15 15 13 12 11 12 12 12 10 17 22 22 20 21 22 25 22 18 19 20 21 21 20 21 23 20 21 21 17 18 23
21 25 22 20 18 12 10 7 9 7 11 14 19 17 16 12 12 13 15 15 19 24 24 23 21 21 21 17 14 16 17 19 20 21 21 21 22 21 19 20 16 18 15
20 23 21 20 18 16 15 20 16 15 13 13 16 15 15 15 15 14 17 13 23 21 19 17 16 15 11 12 14 16 17 18 18 20 19 16 17 19 18 18 14 14 15
19 25 21 22 17 16 18 16 15 19 20 19 17 13 17 21 19 19 15 22 22 17 16 15 14 11 13 10 13 16 16 17 20 20 19 20 18 19 19 18 19 19 20
18 22 16 27 20 18 16 19 17 15 15 14 18 18 21 19 20 21 25 21 13 11 17 18 14 14 16 12 16 19 19 18 20 19 18 19 21 20 21 19 21 21 21
16 10 18 25 19 18 16 14 15 17 19 16 20 21 19 18 21 22 20 12 12 16 15 17 17 19 15 10 16 16 18 19 17 19 19 19 21 20 20 19 20 21 21
20 23 19 24 27 24 15 14 15 18 20 19 17 17 19 21 17 20 13 7 7 13 17 17 18 16 16 13 16 18 18 16 18 19 19 19 18 21 21 23 21 19 22
22 28 20 10 23 18 23 18 14 16 17 19 21 22 22 15 14 13 9 7 6 11 13 15 14 14 13 11 10 13 16 16 17 18 19 19 19 21 19 17 15 18 18
12 22 16 19 29 21 21 20 19 15 21 19 22 25 24 15 14 15 13 14 15 15 17 18 18 19 18 18 18 18 19 20 21 22 22 22 24 26 24 19 20 20 21
8 16 9 7 15 27 24 24 24 21 21 21 23 26 23 12 15 13 15 17 5 9 6 10 6 6 4 7 8 7 9 8 9 15 14 15 16 15 14 17 19 19 19
9 4 22 7 11 19 30 16 28 21 10 19 18 18 15 23 30 30 33 30 25 28 27 27 25 22 21 18 17 14 12 5 4 4 5 10 16 20 23 21 20 20 22
25 24 29 26 24 28 33 21 31 30 30 30 26 28 29 29 26 28 31 32 33 30 27 24 23 22 22 18 18 16 15 13 11 11 12 11 12 15 18 19 21 23 23
21 27 32 31 28 26 29 27 30 28 28 29 27 25 27 26 26 27 28 29 28 28 27 27 26 25 25 25 24 21 19 18 15 13 13 12 13 13 15 18 20 20 20
Wind_Direction
171 174 165 175 162 146 152 159 158 157 164 163 162 164 178 196 200 196 206 178 190 197 195 187 190 197 238 233 217 200 204 204 170 109 141 149 138 148 160 169 162 168 168
151 148 143 135 135 134 134 142 148 148 154 164 169 179 186 180 197 200 220 224 215 203 185 197 201 222 256 222 206 210 216 189 168 129 131 133 133 143 125 134 155 164 164
132 129 132 133 136 133 133 138 144 154 170 165 155 168 188 167 174 203 219 233 220 213 202 198 214 234 249 223 199 200 185 173 158 128 114 111 118 132 134 139 144 154 160
130 135 136 138 140 141 143 151 152 153 147 149 174 147 139 150 197 217 186 227 184 184 188 208 215 235 241 213 194 183 179 168 150 118 119 114 116 132 137 122 116 142 149
148 140 138 140 143 142 147 146 146 154 166 169 134 129 131 142 111 96 94 118 175 187 196 202 217 233 226 202 187 176 175 147 124 124 131 132 126 130 127 125 116 128 136
133 136 142 148 148 145 146 157 160 158 128 132 131 124 109 97 105 130 135 135 148 166 173 171 201 156 158 174 178 172 168 144 138 142 145 145 144 133 136 132 130 129 121
136 140 145 147 148 156 154 158 143 138 124 134 129 121 118 110 120 126 134 140 141 143 148 161 140 126 115 119 121 144 149 157 168 163 155 155 147 150 142 140 143 139 136
150 156 136 129 134 143 159 147 143 140 136 135 123 127 120 123 132 140 138 142 146 145 141 139 115 116 128 128 130 122 131 141 148 160 164 161 160 156 151 144 142 129 131
159 142 138 138 142 156 163 139 142 139 141 140 131 125 118 130 141 131 143 139 150 154 158 142 117 144 142 139 142 131 125 135 147 153 170 166 163 155 151 145 136 138 134
134 132 147 153 154 155 151 142 147 150 160 147 120 128 118 131 137 131 143 148 143 138 142 139 127 143 156 135 149 144 120 128 138 140 148 152 154 154 161 160 151 144 141
123 132 147 137 152 152 151 145 154 173 149 138 114 120 123 130 131 140 141 149 145 141 142 126 125 139 141 136 147 144 138 144 142 144 143 148 152 155 158 163 164 162 162
139 147 137 139 149 149 153 160 174 164 135 129 119 119 123 130 130 137 133 141 149 141 140 137 134 131 130 138 140 142 140 142 142 141 140 144 153 163 168 172 172 180 181
136 125 127 133 142 145 154 170 162 164 156 149 137 133 126 127 126 129 129 135 186 135 147 141 135 131 131 134 138 144 149 148 141 142 143 149 162 176 175 177 187 194 179
135 126 128 121 121 140 161 172 187 180 171 156 141 137 131 136 133 128 114 118 128 130 132 133 133 136 139 134 133 137 139 149 149 148 152 161 172 174 178 182 182 191 201
130 123 129 133 126 120 102 111 105 120 168 159 147 146 144 152 154 151 135 123 129 132 131 132 128 130 133 142 140 143 150 148 151 158 159 166 172 178 178 179 185 190 201
133 140 149 147 150 134 114 92 91 84 119 141 154 145 148 154 151 132 140 137 137 131 124 123 125 133 134 145 138 144 151 154 159 164 165 167 163 175 182 188 196 209 212
155 159 166 151 151 146 138 128 112 92 101 124 134 141 147 144 138 134 128 133 130 132 126 128 137 148 151 152 159 160 164 162 159 160 166 168 175 183 188 193 208 215 231
155 173 157 154 156 154 146 139 139 140 120 99 117 128 135 138 138 137 139 142 149 135 145 149 156 171 164 171 169 177 174 178 177 173 179 184 186 193 197 200 201 210 224
172 167 127 143 141 145 140 145 127 136 120 120 123 133 137 138 144 145 145 153 157 154 156 158 167 180 187 203 185 172 162 171 181 185 193 198 206 210 207 215 209 219 225
110 113 137 137 143 147 141 147 147 134 134 138 139 147 146 142 148 165 176 196 188 165 168 164 169 185 206 200 180 181 182 186 191 194 203 211 222 217 223 221 219 238 225
141 140 179 165 145 152 150 153 147 145 144 146 143 157 153 148 154 170 186 194 177 160 164 169 179 192 195 197 193 186 192 196 206 211 219 224 226 232 244 243 253 235 234
164 158 192 150 156 160 164 167 163 156 151 133 140 158 154 149 166 182 198 199 198 189 180 186 192 188 194 200 200 205 210 213 214 218 227 233 238 237 235 236 242 251 257
3 172 134 137 175 169 171 171 166 156 137 137 145 157 174 175 187 198 211 209 187 233 100 173 198 178 153 170 200 222 224 227 227 219 236 246 248 266 261 245 244 252 261
46 227 134 157 185 140 75 77 145 130 115 135 137 156 134 81 77 78 81 86 79 84 81 77 80 81 83 79 79 69 66 70 48 73 237 277 272 249 243 244 252 256 259
73 58 76 82 65 83 91 80 81 88 84 84 83 85 82 78 72 70 75 72 71 72 71 73 67 63 65 61 48 51 33 26 15 2 13 0 345 350 348 346 343 348 344
65 60 67 69 69 71 75 72 74 74 74 74 73 69 73 73 68 63 65 68 69 68 63 61 61 63 59 55 51 48 42 37 31 18 31 22 17 6 354 352 344 356 355